Change the Weather History Date:

Thursday, May 31, 2012

  Actual Average Record
Temperature  
Mean Temperature 55 °F -  
Max Temperature 60 °F 63 °F 83 °F (1956)
Min Temperature 50 °F 47 °F 37 °F (1953)
Degree Days  
Heating Degree Days 10    
Growing Degree Days 5 (Base 50)    
Moisture  
Dew Point 50 °F    
Average Humidity 89    
Maximum Humidity 96    
Minimum Humidity 75    
Precipitation  
Precipitation 0.00 in - - ()
Sea Level Pressure  
Sea Level Pressure 30.13 in    
Wind  
Wind Speed 1 mph (NNE)    
Max Wind Speed 6 mph    
Max Gust Speed -    
Visibility 8 miles    
Events Rain    
Averages and records for this station are not official NWS values.
T = Trace of Precipitation, MM = Missing Value Source: NWS Daily Summary

Daily Weather History Graph

Daily Weather History Graph

Search for Another Location

Airport or City:

Trip Planner

Search our weather history database for the weather conditions in past years. The results will help you decide how hot, cold, wet, or windy it might be!

Date:

Astronomy

May. 31, 2012 Rise Set
Actual Time 5:18 AM PDT 9:05 PM PDT
Civil Twilight 4:38 AM PDT 9:45 PM PDT
Nautical Twilight 3:44 AM PDT 10:40 PM PDT
Astronomical Twilight 2:24 AM PDT 12:01 AM PDT
Moon 4:47 PM PDT (5/31) 2:38 AM PDT (5/31)
Length of Visible Light 17h 07m
Length of Day
15h 47m
Waxing Gibbous, 81% of the Moon is Illuminated
May 31
Waxing Gibbous
Jun 4
Full
Jun 11
Last Quarter
Jun 19
New
Jun 26
First Quarter

Hourly Weather History & Observations

Time (PDT) Temp. Dew Point Humidity Pressure Visibility Wind Dir Wind Speed Gust Speed Precip Events Conditions
12:14 AM 50.0 °F 48.0 °F 93% 30.15 in 10.0 mi Calm Calm - N/A   Overcast
12:46 AM 50.0 °F 48.0 °F 93% 30.14 in 5.0 mi Calm Calm - N/A   Overcast
12:53 AM 50.0 °F 48.9 °F 96% 30.14 in 8.0 mi Calm Calm - N/A   Overcast
1:02 AM 50.0 °F 48.0 °F 93% 30.14 in 5.0 mi Calm Calm - N/A   Overcast
1:11 AM 50.0 °F 48.0 °F 93% 30.13 in 5.0 mi Calm Calm - N/A   Overcast
1:24 AM 50.0 °F 48.0 °F 93% 30.13 in 6.0 mi Calm Calm - N/A   Overcast
1:41 AM 50.0 °F 48.0 °F 93% 30.14 in 6.0 mi Calm Calm - N/A   Overcast
1:53 AM 50.0 °F 48.0 °F 93% 30.16 in 5.0 mi NW 3.5 mph - N/A   Mostly Cloudy
2:02 AM 50.0 °F 48.0 °F 93% 30.16 in 5.0 mi Calm Calm - 0.00 in Rain Light Rain
2:53 AM 50.0 °F 48.0 °F 93% 30.15 in 5.0 mi Calm Calm - 0.00 in   Overcast
3:08 AM 51.1 °F 48.9 °F 92% 30.14 in 6.0 mi Calm Calm - N/A   Overcast
3:53 AM 51.1 °F 48.0 °F 89% 30.14 in 6.0 mi ESE 3.5 mph - N/A   Overcast
4:06 AM 51.1 °F 48.0 °F 89% 30.13 in 10.0 mi Calm Calm - N/A   Overcast
4:35 AM 51.1 °F 48.9 °F 92% 30.13 in 4.0 mi Calm Calm - N/A   Overcast
4:53 AM 51.1 °F 48.9 °F 92% 30.14 in 7.0 mi Calm Calm - N/A   Overcast
5:50 AM 51.8 °F 48.2 °F 88% 30.12 in 7.0 mi Calm Calm - N/A   Overcast
5:53 AM 51.1 °F 48.9 °F 92% 30.13 in 6.0 mi Calm Calm - N/A   Overcast
6:53 AM 52.0 °F 48.9 °F 89% 30.12 in 10.0 mi SSE 5.8 mph - N/A   Overcast
7:44 AM 51.8 °F 50.0 °F 94% 30.13 in 7.0 mi Calm Calm - N/A   Overcast
7:53 AM 52.0 °F 50.0 °F 93% 30.14 in 6.0 mi Calm Calm - N/A   Overcast
8:53 AM 53.1 °F 51.1 °F 93% 30.14 in 4.0 mi Calm Calm - 0.00 in   Overcast
9:02 AM 54.0 °F 51.1 °F 90% 30.14 in 6.0 mi Calm Calm - N/A   Overcast
9:41 AM 54.0 °F 51.1 °F 90% 30.13 in 6.0 mi NNE 4.6 mph - N/A   Overcast
9:51 AM 53.6 °F 51.8 °F 94% 30.14 in 6.0 mi North 3.5 mph - N/A   Overcast
9:53 AM 54.0 °F 51.1 °F 90% 30.14 in 5.0 mi North 4.6 mph - N/A   Overcast
10:38 AM 55.0 °F 51.1 °F 86% 30.15 in 10.0 mi Variable 3.5 mph - N/A   Overcast
10:53 AM 55.0 °F 50.0 °F 83% 30.15 in 10.0 mi North 3.5 mph - N/A   Overcast
11:19 AM 55.9 °F 51.1 °F 84% 30.15 in 10.0 mi NNE 4.6 mph - N/A   Overcast
11:35 AM 57.0 °F 51.1 °F 81% 30.15 in 10.0 mi Variable 3.5 mph - N/A   Overcast
11:53 AM 55.9 °F 50.0 °F 80% 30.16 in 10.0 mi Calm Calm - N/A   Overcast
12:53 PM 59.0 °F 52.0 °F 78% 30.15 in 10.0 mi ENE 3.5 mph - N/A   Overcast
1:53 PM 57.9 °F 51.1 °F 78% 30.15 in 10.0 mi Calm Calm - N/A   Overcast
2:53 PM 60.1 °F 52.0 °F 75% 30.14 in 10.0 mi Variable 3.5 mph - N/A   Overcast
3:53 PM 55.9 °F 50.0 °F 80% 30.13 in 10.0 mi Calm Calm - N/A   Overcast
4:53 PM 57.9 °F 52.0 °F 81% 30.12 in 10.0 mi Calm Calm - N/A   Overcast
5:53 PM 57.9 °F 52.0 °F 81% 30.11 in 10.0 mi Calm Calm - N/A   Overcast
6:53 PM 54.0 °F 50.0 °F 86% 30.10 in 10.0 mi Calm Calm - N/A   Overcast
7:53 PM 54.0 °F 50.0 °F 86% 30.08 in 10.0 mi Calm Calm - N/A   Overcast
8:10 PM 55.0 °F 50.0 °F 83% 30.07 in 10.0 mi Calm Calm - N/A   Overcast
8:53 PM 53.1 °F 50.0 °F 89% 30.06 in 10.0 mi North 4.6 mph - N/A   Overcast
9:53 PM 53.1 °F 51.1 °F 93% 30.04 in 10.0 mi SSE 3.5 mph - 0.00 in Rain Light Rain
10:53 PM 53.6 °F 51.8 °F 94% 30.03 in 5.0 mi Calm Calm - N/A Rain Light Rain
11:53 PM 54.0 °F 52.0 °F 93% 30.00 in 4.0 mi Calm Calm - 0.00 in Rain Light Rain